GW5704 Weather Reports


time (UTC)temp
C
wind
direction
speed
KPH
gust
KPH
rain 1hr
cm
rain 24hr
cm
rain mn
cm
humidity
%
barometer
mb
20260503215047 12 360 6.4 8.0 0.00 0.00 0.00 28 1017.6
20260503214046 12 338 6.4 9.7 0.00 0.00 0.00 26 1017.6
20260503213047 12 360 8.0 11.3 0.00 0.00 0.00 27 1017.6
20260503212047 13 360 6.4 8.0 0.00 0.00 0.00 27 1017.6
20260503211047 12 338 4.8 6.4 0.00 0.00 0.00 28 1017.6
20260503205047 13 315 4.8 6.4 0.00 0.00 0.00 29 1017.6
20260503204047 12 315 6.4 8.0 0.00 0.00 0.00 31 1017.6
20260503203049 13 315 4.8 6.4 0.00 0.00 0.00 27 1017.6
20260503202047 12 360 8.0 8.0 0.00 0.00 0.00 29 1017.6
20260503201047 13 315 8.0 11.3 0.00 0.00 0.00 27 1018.0
20260503200047 12 360 4.8 8.0 0.00 0.00 0.00 28 1018.0
20260503195049 12 23 6.4 8.0 0.00 0.00 0.00 30 1018.3
20260503194047 12 315 6.4 9.7 0.00 0.00 0.00 31 1018.3
20260503193047 12 315 6.4 8.0 0.00 0.00 0.00 31 1018.3
20260503192047 11 315 9.7 11.3 0.00 0.00 0.00 31 1018.3
20260503191047 11 360 6.4 8.0 0.00 0.00 0.00 30 1018.3
20260503190048 12 338 4.8 8.0 0.00 0.00 0.00 31 1018.7
20260503185047 12 315 4.8 6.4 0.00 0.00 0.00 34 1018.7
20260503184047 12 338 4.8 6.4 0.00 0.00 0.00 32 1019.0
20260503183047 10 338 9.7 11.3 0.00 0.00 0.00 34 1018.7
20260503182047 11 338 4.8 8.0 0.00 0.00 0.00 35 1019.0
20260503181049 11 293 6.4 8.0 0.00 0.00 0.00 36 1018.7
20260503180047 10 338 6.4 8.0 0.00 0.00 0.00 35 1019.0
20260503175047 11 315 8.0 8.0 0.00 0.00 0.00 35 1018.7
20260503174047 10 293 8.0 9.7 0.00 0.00 0.00 35 1019.0
20260503173047 9 360 8.0 9.7 0.00 0.00 0.00 37 1019.0
20260503172049 10 315 6.4 8.0 0.00 0.00 0.00 36 1019.0
20260503171047 8 293 9.7 12.9 0.00 0.00 0.00 38 1019.0
20260503131049 2 293 8.0 8.0 0.00 0.00 0.00 60 1019.3
20260503081047 0 338 6.4 8.0 0.00 0.00 0.00 81 1016.3
20260503072047 0 360 6.4 8.0 0.00 0.00 0.00 84 1016.3
20260503071049 0 360 6.4 8.0 0.00 0.00 0.00 84 1016.3
20260503055049 1 338 8.0 8.0 0.00 0.00 0.00 81 1016.0
20260503054047 1 360 8.0 9.7 0.00 0.00 0.00 81 1016.3
20260503053047 1 360 6.4 8.0 0.00 0.00 0.00 81 1016.0
20260503052049 1 360 6.4 6.4 0.00 0.00 0.00 80 1016.0
20260503051046 1 338 6.4 8.0 0.00 0.00 0.00 81 1016.0
20260503050050 1 315 8.0 11.3 0.00 0.00 0.00 80 1016.0
20260503045047 1 360 8.0 9.7 0.00 0.00 0.00 80 1016.3
20260503044047 1 360 8.0 9.7 0.00 0.00 0.00 79 1016.3
20260503043050 1 23 9.7 11.3 0.00 0.00 0.00 78 1016.0
20260503042047 1 360 6.4 8.0 0.00 0.00 0.00 77 1016.6
20260503041047 2 23 8.0 9.7 0.00 0.00 0.00 76 1016.6
20260503040047 2 360 9.7 11.3 0.00 0.00 0.00 75 1016.3
20260503035047 2 360 8.0 11.3 0.00 0.00 0.00 74 1016.3
20260503034047 2 360 8.0 8.0 0.00 0.00 0.00 73 1016.3
20260503033047 2 23 8.0 9.7 0.00 0.00 0.00 72 1016.3
20260503032047 2 23 8.0 11.3 0.00 0.00 0.00 70 1016.0
20260503031049 2 338 9.7 11.3 0.00 0.00 0.00 69 1016.3
20260503030047 3 23 8.0 11.3 0.00 0.00 0.00 67 1016.3
20260503025048 3 360 9.7 11.3 0.00 0.00 0.00 66 1016.3
20260503024047 3 293 8.0 11.3 0.00 0.00 0.00 65 1016.3
20260503023047 3 360 8.0 9.7 0.00 0.00 0.00 63 1016.6
20260503022047 4 360 6.4 8.0 0.00 0.00 0.00 61 1016.3
20260503021048 4 360 3.2 4.8 0.00 0.00 0.00 59 1016.6
20260503020051 4 45 3.2 4.8 0.00 0.00 0.00 58 1016.6
20260503015047 5 360 4.8 8.0 0.00 0.00 0.00 56 1016.3
20260503014047 5 360 6.4 8.0 0.00 0.00 0.00 56 1016.6
20260503013047 5 338 8.0 9.7 0.00 0.00 0.00 54 1016.3
20260503012047 5 293 4.8 8.0 0.00 0.00 0.00 53 1016.3
20260503011047 5 315 4.8 6.4 0.00 0.00 0.00 52 1016.3
20260503010047 5 338 4.8 4.8 0.00 0.00 0.00 53 1016.3
20260503005047 5 338 8.0 9.7 0.00 0.00 0.00 51 1016.0
20260503004047 5 23 6.4 8.0 0.00 0.00 0.00 51 1015.6
20260503003047 5 360 4.8 6.4 0.00 0.00 0.00 50 1016.0
20260503002046 5 338 4.8 6.4 0.00 0.00 0.00 50 1015.6
20260503001047 5 23 3.2 4.8 0.00 0.00 0.00 51 1015.3
20260503000047 5 360 6.4 8.0 0.00 0.00 0.00 50 1015.3
20260502235047 5 360 4.8 4.8 0.00 0.00 0.00 51 1015.3
20260502234047 6 23 4.8 4.8 0.00 0.00 0.00 48 1015.3
20260502233049 6 315 6.4 8.0 0.00 0.00 0.00 48 1014.9
20260502232047 6 360 8.0 9.7 0.00 0.00 0.00 48 1014.9
20260502231047 6 23 9.7 11.3 0.00 0.00 0.00 46 1014.9
20260502230047 6 338 6.4 8.0 0.00 0.00 0.00 48 1014.9
20260502225047 6 23 6.4 8.0 0.00 0.00 0.00 48 1014.9
20260502224046 6 360 6.4 8.0 0.00 0.00 0.00 47 1014.9
20260502223047 7 338 4.8 8.0 0.00 0.00 0.00 48 1014.9
20260502222047 7 360 8.0 11.3 0.00 0.00 0.00 47 1014.9
20260502221047 7 68 3.2 3.2 0.00 0.00 0.00 47 1014.9
20260502220047 7 338 3.2 4.8 0.00 0.00 0.00 46 1014.9